Location: Newark
(48.1500°N, 2.9667°W)
Time: 01:18:48
(UTC+00:00)

A-11 Canister half - Pass Details

Date: 21 January 2020
Orbit: 1524 x 1684 km, 47.3° (Epoch: 25 February)

Event Time Altitude Azimuth Distance (km) Brightness Sun altitude
Rises 19:41:38 0° 241° (WSW) 4,683 12.4 -27.6°
Reaches altitude 10° 19:44:39 10° 239° (WSW) 3,714 11.7 -28.2°
Maximum altitude 19:53:58 70° 158° (SSE) 1,655 8.9 -29.7°
Enters shadow 19:55:50 58° 105° (ESE) 1,796 8.9 -30.0°
Drops below altitude 10° 20:03:36 10° 78° (ENE) 3,837 - -31.3°
Sets 20:06:46 0° 76° (ENE) 4,846 - -31.8°
